Weather Roundup
Issued by NWS Chicago, IL

Home | Current Version | Previous Version | Graphics & Text | Print | Product List | Glossary On
Versions: 1 2 3 4 5 6 7 8 9 10 11 12 13 14 15 16 17 18 19 20 21 22 23 24 25 26 27 28 29 30 31 32 33 34 35 36 37 38 39 40 41 42 43 44 45 46 47 48 49 50
000
NZUS59 KLOT 310600
HRRLOT

CHICAGO AREA WEATHER ROUNDUP
NATIONAL WEATHER SERVICE CHICAGO/ROMEOVILLE IL
100 AM CDT FRI JUL 31 2015

NOTE: "FAIR" INDICATES FEW OR NO CLOUDS BELOW 12,000 FEET WITH NO
SIGNIFICANT WEATHER AND/OR OBSTRUCTIONS TO VISIBILITY.

* THESE STATIONS ARE NOT UNDER NWS QUALITY CONTROL. THEY ALSO MAY NOT
  REPORT WEATHER SUCH AS PRECIPITATION OR FOG.

ILZ005-006-012>014-019>023-310700-
NORTHEAST ILLINOIS

CITY           SKY/WX    TMP DP  RH WIND       PRES   REMARKS
OHARE          CLEAR     74  58  57 W9        30.02S
6HR MIN TEMP:  74; 6HR MAX TEMP:  85;

MIDWAY         CLEAR     77  58  51 NW8       30.02S
6HR MIN TEMP:  77; 6HR MAX TEMP:  87;

AURORA         CLEAR     62  58  86 W6        30.05S
6HR MIN TEMP:  62; 6HR MAX TEMP:  81;

WAUKEGAN       CLEAR     69  58  67 W3        30.01R
6HR MIN TEMP:  69; 6HR MAX TEMP:  82;

DUPAGE AIRPORT CLEAR     71  59  65 W7        30.03S
6HR MIN TEMP:  71; 6HR MAX TEMP:  83;

WHEELING       CLEAR     74  56  53 W5        30.03S
6HR MIN TEMP:  74; 6HR MAX TEMP:  85;

NORTHERLY IS     N/A     77  58  51 W7          N/A
$$

WIZ051-052-058>065-066-070>072-310700-
SOUTHEAST WISCONSIN

CITY           SKY/WX    TMP DP  RH WIND       PRES   REMARKS
MILWAUKEE      CLEAR     75  54  47 W7        30.00R
6HR MIN TEMP:  75; 6HR MAX TEMP:  86;

KENOSHA*       CLEAR     65  57  75 W7        30.02R
RACINE*        CLEAR     69  56  62 W6        30.02R
$$

INZ001>003-010>013-019-020-310700-
NORTHWEST INDIANA

CITY           SKY/WX    TMP DP  RH WIND       PRES   REMARKS
GARY*          NOT AVBL
MICHIGAN CITY* NOT AVBL
RENSSELAER*    NOT AVBL
$$

LMZ740>746-310700-
SOUTHERN LAKE MICHIGAN

STATION/POSITION TIME  SKY/WX   TEMP WIND        PRES    VSBY
                                AIR  DIR/SP/G
                 (UTC)          (F)  (DEG/KT/KT) (MB)    (MI)
HARRISON CRIB    0500            78  280/ 15/ 18   N/A
BURNHAM HARBOR   0600            76  270/  5/  9   N/A
CALUMET HARBOR   0500            77  270/  3/  8   N/A
BURNS HARBOR     0500            77  230/  9/ 11 1016.6S
MICHIGAN CITY    0500            76  220/ 12/ 14   N/A
$$

ABBREVIATIONS USED IN REMARKS
   TC - TEMPERATURE IN CELSIUS
  WCI - WIND CHILL INDEX
   HX - HEAT INDEX
  VSB - VISIBILITY
$$


USA.gov is the U.S. government's official web portal to all federal, state and local government web resources and services.